Back to catalog

COSMOS 446

AliveMilitaryLEO
NORAD 5549·PAYLOAD·🇷🇺 Russia

Launched Oct 13, 1971 from Plesetsk Cosmodrome

Loading…

Next Passes (next 24 hours)

TLE

FreshSource: Space-Track

Epoch: Sep 14, 2026, 04:45 UTC

1 05549U 71086C   26257.19857102 -.00000003  00000-0  84807-4 0  9995
2 05549  74.0326 358.3481 0084035 323.0298  36.4982 12.54462280514934

Track COSMOS 446 in real time with AllMySat

Download on the App Store